Location: Buckland
(65.9785°N, 161.1281°W)
Time: 06:34:17
(UTC+00:00)

Transit 2A Rocket - Pass Details

Date: 05 December 2020
Orbit: 592 x 910 km, 66.7° (Epoch: 21 January)

Event Time Altitude Azimuth Distance (km) Brightness Sun altitude
Exits shadow 14:30:40 41° 76° (ENE) 1,089 6.1 -32.9°
Drops below altitude 10° 14:33:50 10° 76° (ENE) 2,207 8.2 -32.6°
Sets 14:36:05 0° 76° (ENE) 3,079 9.2 -32.4°
